This demonstration page uses our WeatherBlox Daily Observations layout. Learn more.

Left ArrowRight Arrow

34.16533, -84.80231

Hourly Observations for August 27, 2020

Temp ( °F °C ) Dew Point ( °F °C ) Humidity (%) Winds ( mph kmh ) Pressure ( in mb ) Visibility ( mi km ) Precip ( " mm )
12:53 am 00:53 Clear 75 23.9 72 22.2 90 90 Calm 30.04 1017 7 11 0.00 0.00
1:53 am 01:53 Clear 74 23.3 71 21.7 91 91 Calm 30.04 1017 8 13 0.00 0.00
2:53 am 02:53 Clear 74 23.3 72 22.2 94 94 ENE 3 6 30.03 1017 8 13 0.00 0.00
3:53 am 03:53 Clear 73 22.8 71 21.7 94 94 Calm 30.03 1017 7 11 0.00 0.00
4:07 am 04:07 Partly Cloudy 74 23.3 71 21.7 91 91 Calm 30.04 1017 8 13 0.00 0.00
4:17 am 04:17 Mostly Cloudy 74 23.3 71 21.7 91 91 Calm 30.04 1017 8 13 0.00 0.00
4:34 am 04:34 Partly Cloudy with Mist and Fog 72 22.2 70 21.1 94 94 Calm 30.05 1017 6 10 0.00 0.00
4:53 am 04:53 Mostly Clear with Mist and Fog 72 22.2 70 21.1 94 94 Calm 30.03 1017 5 8 0.00 0.00
5:53 am 05:53 Clear 72 22.2 69 20.6 91 91 ESE 3 6 30.03 1017 7 11 0.00 0.00
6:53 am 06:53 Clear 73 22.8 70 21.1 90 90 Calm 30.04 1017 8 13 0.00 0.00
7:53 am 07:53 Sunny 75 23.9 71 21.7 88 88 ESE 3 6 30.06 1018 7 11 0.00 0.00
8:53 am 08:53 Sunny 79 26.1 73 22.8 82 82 VRB 3 6 30.06 1018 9 14 0.00 0.00
9:53 am 09:53 Sunny 82 27.8 74 23.3 77 77 SE 5 7 30.06 1018 9 14 0.00 0.00
10:53 am 10:53 Sunny 86 30 74 23.3 67 67 SW 5 7 30.06 1018 8 13 0.00 0.00
11:53 am 11:53 Sunny 88 31.1 74 23.3 63 63 SSE 6 9 30.05 1018 10 16 0.00 0.00
12:53 pm 12:53 Sunny 90 32.2 71 21.7 54 54 SE 5 7 30.04 1017 10 16 0.00 0.00
1:53 pm 13:53 Mostly Sunny 90 32.2 72 22.2 56 56 ESE 6 9 30.02 1017 9 14 0.00 0.00
2:53 pm 14:53 Sunny 91 32.8 72 22.2 54 54 VRB 6 9 30.00 1016 9 14 0.00 0.00
3:53 pm 15:53 Sunny 92 33.3 72 22.2 52 52 VRB 6 9 29.98 1015 9 14 0.00 0.00
5:53 pm 17:53 Sunny 89 31.7 72 22.2 57 57 ESE 5 7 29.95 1014 10 16 0.00 0.00
6:53 pm 18:53 Mostly Sunny 86 30 75 23.9 70 70 SSE 3 6 29.96 1014 9 14 0.00 0.00
7:53 pm 19:53 Sunny 84 28.9 74 23.3 72 72 S 5 7 29.97 1015 8 13 0.00 0.00
8:53 pm 20:53 Clear 81 27.2 75 23.9 82 82 Calm 29.97 1015 10 16 0.00 0.00
9:53 pm 21:53 Partly Cloudy 80 26.7 76 24.4 87 87 SSE 5 7 29.98 1015 9 14 0.00 0.00
10:53 pm 22:53 Mostly Cloudy 82 27.8 74 23.3 77 77 S 3 6 30.00 1016 10 16 0.00 0.00
11:53 pm 23:53 Mostly Cloudy 79 26.1 75 23.9 88 88 Calm 30.00 1016 8 13 0.00 0.00

Powered by AerisWeather